Wetterdaten: Mittwoch, 11.05.2016
Datum Zeit Auen-Temp. Temp gefhlt Luftfeuchte Luftdruck Regen Wind Richtung Richtung Sonnenschein Taupunkt Windben
11.05.2016 00:00 8,6 C 8,4 C 88 % 1010,8 hPa 0,0 mm 0,0 km/h (0 Bft) W-NW 292 0 min 6,7 C 0,0 km/h (0 Bft)
11.05.2016 00:05 8,4 C 8,2 C 88 % 1010,8 hPa 0,0 mm 0,0 km/h (0 Bft) NW 315 0 min 6,5 C 0,0 km/h (0 Bft)
11.05.2016 00:10 8,1 C 8,0 C 88 % 1010,8 hPa 0,0 mm 0,0 km/h (0 Bft) W 270 0 min 6,2 C 0,0 km/h (0 Bft)
11.05.2016 00:15 8,2 C 8,0 C 88 % 1010,6 hPa 0,0 mm 0,0 km/h (0 Bft) SW 225 0 min 6,3 C 0,0 km/h (0 Bft)
11.05.2016 00:20 8,5 C 8,1 C 88 % 1010,6 hPa 0,0 mm 0,0 km/h (0 Bft) S 180 0 min 6,6 C 0,0 km/h (0 Bft)
11.05.2016 00:25 8,3 C 8,0 C 88 % 1010,6 hPa 0,0 mm 0,0 km/h (0 Bft) W-SW 247 0 min 6,4 C 0,0 km/h (0 Bft)
11.05.2016 00:30 8,0 C 7,8 C 88 % 1010,6 hPa 0,0 mm 0,0 km/h (0 Bft) W-SW 247 0 min 6,1 C 0,0 km/h (0 Bft)
11.05.2016 00:35 8,1 C 7,9 C 88 % 1010,4 hPa 0,0 mm 0,0 km/h (0 Bft) S-SW 202 0 min 6,2 C 0,0 km/h (0 Bft)
11.05.2016 00:40 7,8 C 7,7 C 88 % 1010,4 hPa 0,0 mm 0,0 km/h (0 Bft) W 270 0 min 5,9 C 0,0 km/h (0 Bft)
11.05.2016 00:45 7,8 C 7,6 C 88 % 1010,4 hPa 0,0 mm 0,0 km/h (0 Bft) W-SW 247 0 min 5,9 C 0,0 km/h (0 Bft)
11.05.2016 00:50 8,0 C 7,8 C 88 % 1010,4 hPa 0,0 mm 0,0 km/h (0 Bft) O-NO 67 0 min 6,1 C 0,0 km/h (0 Bft)
11.05.2016 00:52 7,7 C 7,6 C 88 % 1010,2 hPa 0,0 mm 0,0 km/h (0 Bft) W 270 0 min 5,8 C 0,0 km/h (0 Bft)
11.05.2016 00:56 7,7 C 7,6 C 88 % 1010,2 hPa 0,0 mm 0,0 km/h (0 Bft) W 270 0 min 5,8 C 0,0 km/h (0 Bft)
11.05.2016 01:00 7,6 C 7,5 C 88 % 1010,2 hPa 0,0 mm 0,0 km/h (0 Bft) NW 315 0 min 5,7 C 0,0 km/h (0 Bft)
11.05.2016 01:05 7,6 C 7,4 C 88 % 1010,2 hPa 0,0 mm 0,0 km/h (0 Bft) W-SW 247 0 min 5,7 C 0,0 km/h (0 Bft)
11.05.2016 01:10 7,5 C 7,4 C 88 % 1010,2 hPa 0,0 mm 0,0 km/h (0 Bft) SW 225 0 min 5,6 C 0,0 km/h (0 Bft)
11.05.2016 01:15 7,4 C 7,3 C 88 % 1010,1 hPa 0,0 mm 0,0 km/h (0 Bft) W-SW 247 0 min 5,5 C 0,0 km/h (0 Bft)
11.05.2016 01:20 7,4 C 7,3 C 88 % 1010,1 hPa 0,0 mm 0,0 km/h (0 Bft) W-SW 247 0 min 5,5 C 0,0 km/h (0 Bft)
11.05.2016 01:25 7,4 C 7,3 C 88 % 1010,1 hPa 0,0 mm 0,0 km/h (0 Bft) SW 225 0 min 5,5 C 0,0 km/h (0 Bft)
11.05.2016 01:30 7,4 C 7,3 C 88 % 1010,1 hPa 0,0 mm 0,0 km/h (0 Bft) W 270 0 min 5,5 C 0,0 km/h (0 Bft)
11.05.2016 01:35 7,1 C 7,1 C 88 % 1009,9 hPa 0,0 mm 0,0 km/h (0 Bft) W-SW 247 0 min 5,2 C 0,0 km/h (0 Bft)
11.05.2016 01:40 7,1 C 7,0 C 88 % 1009,9 hPa 0,0 mm 0,0 km/h (0 Bft) SW 225 0 min 5,2 C 0,0 km/h (0 Bft)
11.05.2016 01:45 7,6 C 7,3 C 89 % 1009,9 hPa 0,0 mm 0,0 km/h (0 Bft) NO 45 0 min 5,9 C 0,0 km/h (0 Bft)
11.05.2016 01:50 7,4 C 7,2 C 89 % 1009,9 hPa 0,0 mm 0,0 km/h (0 Bft) O-NO 67 0 min 5,7 C 0,0 km/h (0 Bft)
11.05.2016 01:55 7,3 C 7,1 C 89 % 1009,9 hPa 0,0 mm 0,3 km/h (0 Bft) NO 45 0 min 5,6 C 6,9 km/h (2 Bft)
11.05.2016 02:00 7,4 C 7,3 C 89 % 1009,9 hPa 0,0 mm 0,9 km/h (0 Bft) S-SO 157 0 min 5,7 C 0,0 km/h (0 Bft)
11.05.2016 02:05 7,4 C 7,3 C 89 % 1009,9 hPa 0,0 mm 0,9 km/h (0 Bft) NW 315 0 min 5,7 C 0,0 km/h (0 Bft)
11.05.2016 02:10 7,5 C 7,3 C 89 % 1009,9 hPa 0,0 mm 0,3 km/h (0 Bft) SO 135 0 min 5,8 C 0,0 km/h (0 Bft)
11.05.2016 02:15 7,6 C 7,5 C 90 % 1009,7 hPa 0,0 mm 0,0 km/h (0 Bft) NW 315 0 min 6,1 C 0,0 km/h (0 Bft)
11.05.2016 02:20 7,3 C 7,2 C 90 % 1009,7 hPa 0,0 mm 0,0 km/h (0 Bft) S 180 0 min 5,8 C 0,0 km/h (0 Bft)
11.05.2016 02:25 7,4 C 7,3 C 90 % 1009,7 hPa 0,0 mm 0,0 km/h (0 Bft) W-SW 247 0 min 5,9 C 0,0 km/h (0 Bft)
11.05.2016 02:30 7,1 C 7,0 C 90 % 1009,7 hPa 0,0 mm 0,0 km/h (0 Bft) SW 225 0 min 5,6 C 0,0 km/h (0 Bft)
11.05.2016 02:35 7,2 C 7,0 C 90 % 1009,4 hPa 0,0 mm 0,0 km/h (0 Bft) S-SW 202 0 min 5,7 C 0,0 km/h (0 Bft)
11.05.2016 02:40 6,7 C 6,7 C 90 % 1009,4 hPa 0,0 mm 0,0 km/h (0 Bft) NW 315 0 min 5,2 C 0,0 km/h (0 Bft)
11.05.2016 02:45 6,6 C 6,5 C 90 % 1009,4 hPa 0,0 mm 0,0 km/h (0 Bft) W-SW 247 0 min 5,1 C 0,0 km/h (0 Bft)
11.05.2016 02:50 6,4 C 6,3 C 89 % 1009,4 hPa 0,0 mm 0,0 km/h (0 Bft) W 270 0 min 4,7 C 0,0 km/h (0 Bft)
11.05.2016 02:55 7,0 C 6,7 C 89 % 1009,6 hPa 0,0 mm 0,0 km/h (0 Bft) S 180 0 min 5,3 C 0,0 km/h (0 Bft)
11.05.2016 03:00 6,6 C 6,5 C 90 % 1009,6 hPa 0,0 mm 0,0 km/h (0 Bft) W-SW 247 0 min 5,1 C 0,0 km/h (0 Bft)
11.05.2016 03:05 6,3 C 6,2 C 89 % 1009,6 hPa 0,0 mm 0,0 km/h (0 Bft) N-NO 22 0 min 4,6 C 0,0 km/h (0 Bft)
11.05.2016 03:10 6,1 C 6,0 C 89 % 1009,6 hPa 0,0 mm 0,0 km/h (0 Bft) NW 315 0 min 4,4 C 0,0 km/h (0 Bft)
11.05.2016 03:15 6,3 C 6,1 C 89 % 1009,2 hPa 0,0 mm 0,0 km/h (0 Bft) S 180 0 min 4,6 C 0,0 km/h (0 Bft)
11.05.2016 03:20 6,6 C 6,4 C 90 % 1009,2 hPa 0,0 mm 0,0 km/h (0 Bft) S 180 0 min 5,1 C 0,0 km/h (0 Bft)
11.05.2016 03:25 6,7 C 6,5 C 90 % 1009,2 hPa 0,0 mm 0,0 km/h (0 Bft) W-SW 247 0 min 5,2 C 0,0 km/h (0 Bft)
11.05.2016 03:30 6,4 C 6,3 C 90 % 1009,2 hPa 0,0 mm 0,0 km/h (0 Bft) W 270 0 min 4,9 C 0,0 km/h (0 Bft)
11.05.2016 03:35 6,6 C 6,4 C 90 % 1009,1 hPa 0,0 mm 0,9 km/h (0 Bft) O-SO 112 0 min 5,1 C 0,0 km/h (0 Bft)
11.05.2016 03:40 6,4 C 6,4 C 90 % 1009,1 hPa 0,0 mm 1,2 km/h (1 Bft) O-NO 67 0 min 4,9 C 0,0 km/h (0 Bft)
11.05.2016 03:45 6,4 C 6,3 C 90 % 1009,1 hPa 0,0 mm 0,0 km/h (0 Bft) W-SW 247 0 min 4,9 C 0,0 km/h (0 Bft)
11.05.2016 03:50 6,1 C 6,1 C 90 % 1009,1 hPa 0,0 mm 0,0 km/h (0 Bft) NO 45 0 min 4,6 C 0,0 km/h (0 Bft)
11.05.2016 03:55 6,4 C 6,2 C 90 % 1008,7 hPa 0,0 mm 0,0 km/h (0 Bft) W-SW 247 0 min 4,9 C 0,0 km/h (0 Bft)
11.05.2016 03:57 6,4 C 6,2 C 90 % 1008,7 hPa 0,0 mm 0,0 km/h (0 Bft) W-SW 247 0 min 4,9 C 0,0 km/h (0 Bft)
11.05.2016 04:00 5,9 C 5,9 C 91 % 1008,7 hPa 0,0 mm 0,0 km/h (0 Bft) W 270 0 min 4,5 C 0,0 km/h (0 Bft)
11.05.2016 04:05 6,0 C 5,9 C 90 % 1008,7 hPa 0,0 mm 0,0 km/h (0 Bft) O-SO 112 0 min 4,5 C 0,0 km/h (0 Bft)
11.05.2016 04:10 5,8 C 5,7 C 91 % 1008,7 hPa 0,0 mm 0,0 km/h (0 Bft) W-SW 247 0 min 4,4 C 0,0 km/h (0 Bft)
11.05.2016 04:15 5,8 C 5,7 C 91 % 1008,4 hPa 0,0 mm 0,0 km/h (0 Bft) W 270 0 min 4,4 C 0,0 km/h (0 Bft)
11.05.2016 04:20 5,7 C 5,6 C 91 % 1008,4 hPa 0,0 mm 0,0 km/h (0 Bft) SW 225 0 min 4,3 C 0,0 km/h (0 Bft)
11.05.2016 04:25 5,8 C 5,7 C 91 % 1008,4 hPa 0,0 mm 0,0 km/h (0 Bft) SW 225 0 min 4,4 C 0,0 km/h (0 Bft)
11.05.2016 04:30 5,8 C 5,7 C 91 % 1008,4 hPa 0,0 mm 0,0 km/h (0 Bft) W-NW 292 0 min 4,4 C 0,0 km/h (0 Bft)
11.05.2016 04:35 5,5 C 5,7 C 91 % 1008,2 hPa 0,0 mm 0,0 km/h (0 Bft) W-NW 292 0 min 4,2 C 0,0 km/h (0 Bft)
11.05.2016 04:40 5,6 C 5,6 C 91 % 1008,2 hPa 0,0 mm 0,0 km/h (0 Bft) W 270 0 min 4,2 C 0,0 km/h (0 Bft)
11.05.2016 04:45 5,8 C 5,7 C 91 % 1008,2 hPa 0,0 mm 0,0 km/h (0 Bft) SW 225 0 min 4,4 C 0,0 km/h (0 Bft)
11.05.2016 04:50 6,0 C 5,8 C 90 % 1008,2 hPa 0,0 mm 0,0 km/h (0 Bft) SW 225 0 min 4,5 C 0,0 km/h (0 Bft)
11.05.2016 04:55 5,7 C 5,6 C 91 % 1007,8 hPa 0,0 mm 0,0 km/h (0 Bft) W-SW 247 0 min 4,3 C 0,0 km/h (0 Bft)
11.05.2016 05:00 5,5 C 5,4 C 91 % 1007,8 hPa 0,0 mm 0,0 km/h (0 Bft) W-SW 247 0 min 4,2 C 0,0 km/h (0 Bft)
11.05.2016 05:05 5,6 C 5,5 C 91 % 1007,8 hPa 0,0 mm 0,0 km/h (0 Bft) W-SW 247 0 min 4,2 C 0,0 km/h (0 Bft)
11.05.2016 05:10 5,7 C 5,6 C 91 % 1007,8 hPa 0,0 mm 0,0 km/h (0 Bft) W-SW 247 0 min 4,3 C 0,0 km/h (0 Bft)
11.05.2016 05:15 5,7 C 5,6 C 91 % 1007,5 hPa 0,0 mm 0,0 km/h (0 Bft) SW 225 0 min 4,3 C 0,0 km/h (0 Bft)
11.05.2016 05:20 5,5 C 5,5 C 91 % 1007,5 hPa 0,0 mm 0,0 km/h (0 Bft) W-SW 247 0 min 4,2 C 0,0 km/h (0 Bft)
11.05.2016 05:25 5,4 C 5,3 C 91 % 1007,5 hPa 0,0 mm 0,0 km/h (0 Bft) W 270 0 min 4,1 C 0,0 km/h (0 Bft)
11.05.2016 05:30 5,2 C 5,2 C 90 % 1007,5 hPa 0,0 mm 0,0 km/h (0 Bft) W-NW 292 0 min 3,7 C 0,0 km/h (0 Bft)
11.05.2016 05:35 5,2 C 5,2 C 90 % 1007,6 hPa 0,0 mm 0,0 km/h (0 Bft) SW 225 0 min 3,7 C 0,0 km/h (0 Bft)
11.05.2016 05:40 5,3 C 5,2 C 91 % 1007,6 hPa 0,0 mm 0,0 km/h (0 Bft) W-SW 247 0 min 4,0 C 0,0 km/h (0 Bft)
11.05.2016 05:45 5,4 C 5,3 C 91 % 1007,6 hPa 0,0 mm 0,0 km/h (0 Bft) N-NW 337 0 min 4,1 C 0,0 km/h (0 Bft)
11.05.2016 05:50 5,5 C 5,4 C 91 % 1007,6 hPa 0,0 mm 0,0 km/h (0 Bft) SW 225 0 min 4,2 C 0,0 km/h (0 Bft)
11.05.2016 05:55 5,5 C 5,5 C 91 % 1007,8 hPa 0,0 mm 0,0 km/h (0 Bft) W-SW 247 0 min 4,2 C 0,0 km/h (0 Bft)
11.05.2016 06:00 5,5 C 5,5 C 91 % 1007,8 hPa 0,0 mm 0,0 km/h (0 Bft) W-SW 247 0 min 4,2 C 0,0 km/h (0 Bft)
11.05.2016 06:05 5,6 C 5,6 C 91 % 1007,8 hPa 0,0 mm 0,0 km/h (0 Bft) O-SO 112 0 min 4,2 C 0,0 km/h (0 Bft)
11.05.2016 06:10 6,2 C 6,2 C 86 % 1007,8 hPa 0,0 mm 0,0 km/h (0 Bft) O-NO 67 0 min 4,0 C 0,0 km/h (0 Bft)
11.05.2016 06:15 6,3 C 7,2 C 86 % 1007,8 hPa 0,0 mm 0,0 km/h (0 Bft) W-SW 247 0 min 4,1 C 0,0 km/h (0 Bft)
11.05.2016 06:20 6,3 C 7,6 C 90 % 1007,8 hPa 0,0 mm 0,0 km/h (0 Bft) W-SW 247 0 min 4,8 C 0,0 km/h (0 Bft)
11.05.2016 06:25 6,2 C 7,2 C 90 % 1007,8 hPa 0,0 mm 0,0 km/h (0 Bft) W 270 0 min 4,7 C 0,0 km/h (0 Bft)
11.05.2016 06:30 6,2 C 7,1 C 90 % 1007,8 hPa 0,0 mm 0,0 km/h (0 Bft) W-SW 247 0 min 4,7 C 0,0 km/h (0 Bft)
11.05.2016 06:35 6,2 C 7,0 C 90 % 1007,9 hPa 0,0 mm 0,0 km/h (0 Bft) NW 315 0 min 4,7 C 0,0 km/h (0 Bft)
11.05.2016 06:40 6,1 C 6,7 C 90 % 1007,9 hPa 0,0 mm 0,0 km/h (0 Bft) W-SW 247 0 min 4,6 C 0,0 km/h (0 Bft)
11.05.2016 06:45 6,0 C 6,4 C 90 % 1007,9 hPa 0,0 mm 0,0 km/h (0 Bft) W-SW 247 0 min 4,5 C 0,0 km/h (0 Bft)
11.05.2016 06:50 6,0 C 6,2 C 90 % 1007,9 hPa 0,0 mm 0,0 km/h (0 Bft) S 180 0 min 4,5 C 0,0 km/h (0 Bft)
11.05.2016 06:55 6,2 C 6,4 C 86 % 1007,8 hPa 0,0 mm 0,0 km/h (0 Bft) W 270 0 min 4,0 C 0,0 km/h (0 Bft)
11.05.2016 06:57 6,4 C 6,5 C 90 % 1007,8 hPa 0,0 mm 0,0 km/h (0 Bft) W-SW 247 0 min 4,9 C 0,0 km/h (0 Bft)
11.05.2016 06:58 6,4 C 6,5 C 90 % 1007,8 hPa 0,0 mm 0,0 km/h (0 Bft) W-SW 247 0 min 4,9 C 0,0 km/h (0 Bft)
11.05.2016 07:00 6,4 C 6,5 C 90 % 1007,8 hPa 0,0 mm 0,0 km/h (0 Bft) W-SW 247 0 min 4,9 C 0,0 km/h (0 Bft)
11.05.2016 07:05 6,5 C 6,8 C 86 % 1007,8 hPa 0,0 mm 0,0 km/h (0 Bft) SW 225 0 min 4,3 C 0,0 km/h (0 Bft)
11.05.2016 07:10 6,6 C 6,9 C 86 % 1007,8 hPa 0,0 mm 0,0 km/h (0 Bft) W-SW 247 0 min 4,4 C 0,0 km/h (0 Bft)
11.05.2016 07:15 6,8 C 7,2 C 86 % 1007,4 hPa 0,0 mm 0,0 km/h (0 Bft) W-SW 247 0 min 4,6 C 0,0 km/h (0 Bft)
11.05.2016 07:20 6,9 C 7,3 C 90 % 1007,4 hPa 0,0 mm 0,0 km/h (0 Bft) N-NO 22 0 min 5,4 C 0,0 km/h (0 Bft)
11.05.2016 07:25 6,9 C 7,3 C 86 % 1007,4 hPa 0,0 mm 0,0 km/h (0 Bft) W-SW 247 0 min 4,7 C 0,0 km/h (0 Bft)
11.05.2016 07:30 7,0 C 7,6 C 86 % 1007,4 hPa 0,0 mm 0,0 km/h (0 Bft) W-NW 292 0 min 4,8 C 0,0 km/h (0 Bft)
11.05.2016 07:35 7,3 C 8,1 C 86 % 1007,4 hPa 0,0 mm 0,0 km/h (0 Bft) W-NW 292 0 min 5,1 C 0,0 km/h (0 Bft)
11.05.2016 07:40 7,6 C 8,8 C 86 % 1007,4 hPa 0,0 mm 0,0 km/h (0 Bft) W 270 0 min 5,4 C 0,0 km/h (0 Bft)
11.05.2016 07:45 8,2 C 10,2 C 86 % 1007,4 hPa 0,0 mm 0,0 km/h (0 Bft) W-SW 247 0 min 6,0 C 0,0 km/h (0 Bft)
11.05.2016 07:50 8,5 C 10,5 C 86 % 1007,4 hPa 0,0 mm 0,3 km/h (0 Bft) NO 45 0 min 6,3 C 3,0 km/h (1 Bft)
11.05.2016 07:55 8,6 C 10,6 C 86 % 1007,4 hPa 0,0 mm 0,6 km/h (0 Bft) N-NO 22 0 min 6,4 C 0,0 km/h (0 Bft)
11.05.2016 08:00 8,9 C 10,7 C 86 % 1007,4 hPa 0,0 mm 0,3 km/h (0 Bft) N-NW 337 0 min 6,7 C 0,0 km/h (0 Bft)
11.05.2016 08:05 9,3 C 11,3 C 86 % 1007,4 hPa 0,0 mm 0,0 km/h (0 Bft) W-NW 292 0 min 7,1 C 0,0 km/h (0 Bft)
11.05.2016 08:10 9,4 C 11,5 C 86 % 1007,4 hPa 0,0 mm 0,0 km/h (0 Bft) O-NO 67 0 min 7,2 C 0,0 km/h (0 Bft)
11.05.2016 08:15 9,9 C 12,5 C 86 % 1007,2 hPa 0,0 mm 0,0 km/h (0 Bft) NW 315 0 min 7,7 C 0,0 km/h (0 Bft)
11.05.2016 08:20 10,4 C 13,9 C 86 % 1007,2 hPa 0,0 mm 0,0 km/h (0 Bft) N-NO 22 0 min 8,2 C 0,0 km/h (0 Bft)
11.05.2016 08:25 10,9 C 14,9 C 86 % 1007,2 hPa 0,0 mm 0,3 km/h (0 Bft) NW 315 5 min 8,7 C 0,0 km/h (0 Bft)
11.05.2016 08:30 11,1 C 15,2 C 85 % 1007,2 hPa 0,0 mm 0,3 km/h (0 Bft) N-NW 337 5 min 8,7 C 0,0 km/h (0 Bft)
11.05.2016 08:35 11,6 C 15,9 C 85 % 1007,0 hPa 0,0 mm 0,0 km/h (0 Bft) N-NW 337 5 min 9,2 C 0,0 km/h (0 Bft)
11.05.2016 08:40 12,1 C 17,3 C 85 % 1007,0 hPa 0,0 mm 0,0 km/h (0 Bft) O-NO 67 5 min 9,7 C 0,0 km/h (0 Bft)
11.05.2016 08:45 12,8 C 18,9 C 84 % 1007,0 hPa 0,0 mm 0,6 km/h (0 Bft) N-NO 22 5 min 10,2 C 3,6 km/h (1 Bft)
11.05.2016 08:50 13,0 C 18,8 C 82 % 1007,0 hPa 0,0 mm 1,2 km/h (1 Bft) NO 45 5 min 10,0 C 4,2 km/h (1 Bft)
11.05.2016 08:55 13,2 C 19,2 C 81 % 1006,6 hPa 0,0 mm 2,4 km/h (1 Bft) N-NO 22 5 min 10,0 C 4,5 km/h (1 Bft)
11.05.2016 09:00 13,6 C 19,8 C 81 % 1006,6 hPa 0,0 mm 2,7 km/h (1 Bft) N-NO 22 5 min 10,4 C 7,7 km/h (2 Bft)
11.05.2016 09:05 14,3 C 20,7 C 80 % 1006,6 hPa 0,0 mm 2,1 km/h (1 Bft) N-NO 22 5 min 10,9 C 3,9 km/h (1 Bft)
11.05.2016 09:10 14,3 C 20,9 C 79 % 1006,6 hPa 0,0 mm 3,3 km/h (1 Bft) N 360 5 min 10,7 C 4,2 km/h (1 Bft)
11.05.2016 09:15 14,7 C 21,1 C 78 % 1006,8 hPa 0,0 mm 3,3 km/h (1 Bft) N-NO 22 5 min 10,9 C 0,0 km/h (0 Bft)
11.05.2016 09:20 14,9 C 21,3 C 77 % 1006,8 hPa 0,0 mm 3,0 km/h (1 Bft) NO 45 5 min 10,9 C 6,6 km/h (2 Bft)
11.05.2016 09:25 15,0 C 21,4 C 76 % 1006,8 hPa 0,0 mm 4,8 km/h (1 Bft) NO 45 5 min 10,8 C 11,3 km/h (2 Bft)
11.05.2016 09:30 15,1 C 21,3 C 75 % 1006,8 hPa 0,0 mm 5,7 km/h (1 Bft) NO 45 5 min 10,7 C 6,6 km/h (2 Bft)
11.05.2016 09:35 15,3 C 21,3 C 75 % 1006,9 hPa 0,0 mm 4,8 km/h (1 Bft) NO 45 5 min 10,9 C 9,2 km/h (2 Bft)
11.05.2016 09:40 15,5 C 20,9 C 75 % 1006,9 hPa 0,0 mm 4,8 km/h (1 Bft) NO 45 5 min 11,1 C 8,6 km/h (2 Bft)
11.05.2016 09:45 15,5 C 19,8 C 74 % 1006,9 hPa 0,0 mm 6,3 km/h (2 Bft) N-NO 22 5 min 10,9 C 12,8 km/h (3 Bft)
11.05.2016 09:50 15,5 C 19,3 C 73 % 1006,9 hPa 0,0 mm 7,7 km/h (2 Bft) N-NO 22 5 min 10,7 C 13,7 km/h (3 Bft)
11.05.2016 09:55 15,4 C 18,4 C 72 % 1006,9 hPa 0,0 mm 8,3 km/h (2 Bft) N-NW 337 0 min 10,4 C 16,4 km/h (3 Bft)
11.05.2016 09:57 15,5 C 18,1 C 72 % 1006,9 hPa 0,0 mm 8,6 km/h (2 Bft) N-NO 22 0 min 10,5 C 3,3 km/h (1 Bft)
11.05.2016 09:59 15,5 C 18,1 C 72 % 1006,9 hPa 0,0 mm 8,6 km/h (2 Bft) N-NO 22 0 min 10,5 C 3,3 km/h (1 Bft)
11.05.2016 10:00 15,5 C 18,1 C 72 % 1006,9 hPa 0,0 mm 8,6 km/h (2 Bft) N-NO 22 0 min 10,5 C 3,3 km/h (1 Bft)
11.05.2016 10:05 15,3 C 17,7 C 71 % 1006,9 hPa 0,0 mm 10,1 km/h (2 Bft) NO 45 0 min 10,1 C 21,8 km/h (4 Bft)
11.05.2016 10:10 15,4 C 17,8 C 71 % 1006,9 hPa 0,0 mm 11,3 km/h (2 Bft) O-NO 67 0 min 10,2 C 15,5 km/h (3 Bft)
11.05.2016 10:15 15,8 C 19,5 C 72 % 1007,1 hPa 0,0 mm 11,9 km/h (2 Bft) N-NO 22 0 min 10,8 C 7,7 km/h (2 Bft)
11.05.2016 10:20 15,9 C 20,3 C 71 % 1007,1 hPa 0,0 mm 11,3 km/h (2 Bft) NO 45 5 min 10,6 C 18,5 km/h (3 Bft)
11.05.2016 10:25 16,1 C 20,6 C 70 % 1007,1 hPa 0,0 mm 10,4 km/h (2 Bft) O-NO 67 5 min 10,6 C 16,1 km/h (3 Bft)
11.05.2016 10:30 16,5 C 21,1 C 69 % 1007,1 hPa 0,0 mm 10,1 km/h (2 Bft) O 90 5 min 10,8 C 9,8 km/h (2 Bft)
11.05.2016 10:35 16,8 C 21,4 C 68 % 1006,9 hPa 0,0 mm 10,7 km/h (2 Bft) O-SO 112 5 min 10,9 C 14,9 km/h (3 Bft)
11.05.2016 10:40 17,0 C 21,8 C 68 % 1006,9 hPa 0,0 mm 10,1 km/h (2 Bft) O-NO 67 5 min 11,0 C 19,7 km/h (3 Bft)
11.05.2016 10:45 17,2 C 22,0 C 67 % 1006,9 hPa 0,0 mm 11,9 km/h (2 Bft) NO 45 5 min 11,0 C 19,4 km/h (3 Bft)
11.05.2016 10:50 17,2 C 21,9 C 67 % 1006,9 hPa 0,0 mm 11,3 km/h (2 Bft) NO 45 5 min 11,0 C 17,0 km/h (3 Bft)
11.05.2016 10:55 17,4 C 21,8 C 66 % 1006,9 hPa 0,0 mm 11,6 km/h (2 Bft) O-NO 67 5 min 11,0 C 19,7 km/h (3 Bft)
11.05.2016 11:00 17,7 C 22,2 C 66 % 1006,9 hPa 0,0 mm 12,5 km/h (3 Bft) N-NO 22 5 min 11,3 C 12,8 km/h (3 Bft)
11.05.2016 11:05 17,9 C 22,4 C 66 % 1006,9 hPa 0,0 mm 12,2 km/h (2 Bft) S 180 5 min 11,5 C 22,1 km/h (4 Bft)
11.05.2016 11:10 17,9 C 22,2 C 65 % 1006,9 hPa 0,0 mm 10,7 km/h (2 Bft) O-SO 112 5 min 11,2 C 11,0 km/h (2 Bft)
11.05.2016 11:15 17,7 C 21,7 C 64 % 1006,6 hPa 0,0 mm 6,9 km/h (2 Bft) NO 45 5 min 10,8 C 5,1 km/h (1 Bft)
11.05.2016 11:20 17,6 C 21,4 C 63 % 1006,6 hPa 0,0 mm 8,0 km/h (2 Bft) O-NO 67 5 min 10,5 C 16,4 km/h (3 Bft)
11.05.2016 11:25 17,8 C 21,3 C 63 % 1006,6 hPa 0,0 mm 12,2 km/h (2 Bft) O-NO 67 5 min 10,7 C 21,8 km/h (4 Bft)
11.05.2016 11:30 18,0 C 21,2 C 63 % 1006,6 hPa 0,0 mm 14,6 km/h (3 Bft) N-NO 22 0 min 10,8 C 17,9 km/h (3 Bft)
11.05.2016 11:35 18,0 C 21,6 C 63 % 1006,8 hPa 0,0 mm 15,5 km/h (3 Bft) N-NO 22 0 min 10,8 C 25,9 km/h (4 Bft)
11.05.2016 11:40 17,8 C 20,9 C 64 % 1006,8 hPa 0,0 mm 14,9 km/h (3 Bft) O-NO 67 0 min 10,9 C 9,5 km/h (2 Bft)
11.05.2016 11:45 18,0 C 21,0 C 65 % 1006,8 hPa 0,0 mm 12,2 km/h (2 Bft) NO 45 0 min 11,3 C 9,5 km/h (2 Bft)
11.05.2016 11:50 18,0 C 21,1 C 64 % 1006,8 hPa 0,0 mm 12,5 km/h (3 Bft) N-NO 22 0 min 11,1 C 13,7 km/h (3 Bft)
11.05.2016 11:55 17,9 C 20,5 C 65 % 1006,6 hPa 0,0 mm 16,4 km/h (3 Bft) N-NO 22 0 min 11,2 C 34,0 km/h (5 Bft)
11.05.2016 12:00 18,0 C 20,6 C 64 % 1006,6 hPa 0,0 mm 15,5 km/h (3 Bft) NO 45 0 min 11,1 C 9,2 km/h (2 Bft)
11.05.2016 12:05 18,4 C 21,6 C 64 % 1006,6 hPa 0,0 mm 15,5 km/h (3 Bft) NO 45 0 min 11,5 C 19,4 km/h (3 Bft)
11.05.2016 12:10 18,7 C 22,2 C 63 % 1006,6 hPa 0,0 mm 15,2 km/h (3 Bft) N 360 0 min 11,5 C 21,2 km/h (4 Bft)
11.05.2016 12:15 18,6 C 22,1 C 62 % 1006,3 hPa 0,0 mm 14,6 km/h (3 Bft) N 360 0 min 11,2 C 16,1 km/h (3 Bft)
11.05.2016 12:20 18,8 C 22,1 C 62 % 1006,3 hPa 0,0 mm 15,2 km/h (3 Bft) NO 45 0 min 11,4 C 24,7 km/h (4 Bft)
11.05.2016 12:25 18,9 C 22,3 C 59 % 1006,3 hPa 0,0 mm 16,4 km/h (3 Bft) N-NO 22 0 min 10,7 C 18,2 km/h (3 Bft)
11.05.2016 12:30 19,0 C 22,5 C 58 % 1006,3 hPa 0,0 mm 17,3 km/h (3 Bft) N 360 0 min 10,5 C 10,4 km/h (2 Bft)
11.05.2016 12:35 19,0 C 22,4 C 58 % 1005,9 hPa 0,0 mm 15,5 km/h (3 Bft) O-NO 67 0 min 10,5 C 12,5 km/h (3 Bft)
11.05.2016 12:40 19,1 C 22,2 C 58 % 1005,9 hPa 0,0 mm 14,0 km/h (3 Bft) O-NO 67 0 min 10,6 C 17,9 km/h (3 Bft)
11.05.2016 12:45 19,3 C 22,5 C 57 % 1005,9 hPa 0,0 mm 14,6 km/h (3 Bft) O-NO 67 0 min 10,6 C 20,6 km/h (4 Bft)
11.05.2016 12:50 19,3 C 22,7 C 58 % 1005,9 hPa 0,0 mm 15,8 km/h (3 Bft) N-NO 22 0 min 10,8 C 14,3 km/h (3 Bft)
11.05.2016 12:55 19,5 C 22,6 C 58 % 1005,7 hPa 0,0 mm 15,8 km/h (3 Bft) O-SO 112 0 min 11,0 C 16,7 km/h (3 Bft)
11.05.2016 12:57 19,8 C 22,8 C 57 % 1005,7 hPa 0,0 mm 14,3 km/h (3 Bft) N-NO 22 0 min 11,0 C 9,2 km/h (2 Bft)
11.05.2016 13:00 19,8 C 22,8 C 57 % 1005,7 hPa 0,0 mm 14,3 km/h (3 Bft) N-NO 22 0 min 11,0 C 9,2 km/h (2 Bft)
11.05.2016 13:05 20,0 C 23,2 C 56 % 1005,7 hPa 0,0 mm 15,8 km/h (3 Bft) NO 45 0 min 11,0 C 30,7 km/h (5 Bft)
11.05.2016 13:10 20,0 C 23,3 C 56 % 1005,7 hPa 0,0 mm 15,8 km/h (3 Bft) N-NO 22 0 min 11,0 C 19,4 km/h (3 Bft)
11.05.2016 13:15 19,9 C 22,8 C 56 % 1005,6 hPa 0,0 mm 17,3 km/h (3 Bft) O-NO 67 0 min 10,9 C 29,2 km/h (5 Bft)
11.05.2016 13:20 19,9 C 22,6 C 56 % 1005,6 hPa 0,0 mm 16,1 km/h (3 Bft) N-NO 22 0 min 10,9 C 16,7 km/h (3 Bft)
11.05.2016 13:25 19,9 C 22,7 C 56 % 1005,6 hPa 0,0 mm 13,7 km/h (3 Bft) N-NO 22 0 min 10,9 C 16,4 km/h (3 Bft)
11.05.2016 13:30 19,8 C 22,7 C 56 % 1005,6 hPa 0,0 mm 13,4 km/h (3 Bft) N-NO 22 0 min 10,8 C 16,1 km/h (3 Bft)
11.05.2016 13:35 20,1 C 23,3 C 55 % 1005,5 hPa 0,0 mm 13,1 km/h (3 Bft) O-NO 67 0 min 10,8 C 13,7 km/h (3 Bft)
11.05.2016 13:40 20,1 C 23,6 C 55 % 1005,5 hPa 0,0 mm 11,3 km/h (2 Bft) O-NO 67 0 min 10,8 C 14,9 km/h (3 Bft)
11.05.2016 13:45 19,9 C 23,0 C 55 % 1005,5 hPa 0,0 mm 12,8 km/h (3 Bft) N-NO 22 0 min 10,6 C 17,0 km/h (3 Bft)
11.05.2016 13:50 19,9 C 22,7 C 55 % 1005,5 hPa 0,0 mm 14,0 km/h (3 Bft) N-NO 22 0 min 10,6 C 25,0 km/h (4 Bft)
11.05.2016 13:55 19,9 C 22,6 C 56 % 1005,4 hPa 0,0 mm 11,6 km/h (2 Bft) N-NO 22 0 min 10,9 C 25,3 km/h (4 Bft)
11.05.2016 14:00 19,9 C 22,3 C 55 % 1005,4 hPa 0,0 mm 12,8 km/h (3 Bft) N 360 0 min 10,6 C 20,9 km/h (4 Bft)
11.05.2016 14:05 19,8 C 22,1 C 54 % 1005,4 hPa 0,0 mm 15,5 km/h (3 Bft) N-NO 22 0 min 10,2 C 16,7 km/h (3 Bft)
11.05.2016 14:10 19,7 C 21,8 C 55 % 1005,4 hPa 0,0 mm 14,9 km/h (3 Bft) N-NO 22 0 min 10,4 C 19,7 km/h (3 Bft)
11.05.2016 14:15 19,8 C 21,9 C 55 % 1004,9 hPa 0,0 mm 12,5 km/h (3 Bft) S 180 0 min 10,5 C 12,2 km/h (2 Bft)
11.05.2016 14:20 19,8 C 22,1 C 55 % 1004,9 hPa 0,0 mm 11,3 km/h (2 Bft) N-NW 337 0 min 10,5 C 8,6 km/h (2 Bft)
11.05.2016 14:25 20,1 C 22,5 C 55 % 1004,9 hPa 0,0 mm 12,5 km/h (3 Bft) NO 45 0 min 10,8 C 26,5 km/h (4 Bft)
11.05.2016 14:30 20,1 C 22,8 C 56 % 1004,9 hPa 0,0 mm 12,2 km/h (2 Bft) N-NO 22 0 min 11,0 C 18,5 km/h (3 Bft)
11.05.2016 14:35 20,1 C 23,1 C 55 % 1005,3 hPa 0,0 mm 12,8 km/h (3 Bft) O-NO 67 0 min 10,8 C 20,3 km/h (4 Bft)
11.05.2016 14:40 20,1 C 23,2 C 55 % 1005,3 hPa 0,0 mm 11,6 km/h (2 Bft) NO 45 0 min 10,8 C 16,4 km/h (3 Bft)
11.05.2016 14:45 20,2 C 23,3 C 55 % 1005,3 hPa 0,0 mm 11,0 km/h (2 Bft) NO 45 0 min 10,9 C 11,6 km/h (2 Bft)
11.05.2016 14:50 20,2 C 23,3 C 54 % 1005,3 hPa 0,0 mm 13,1 km/h (3 Bft) N-NO 22 0 min 10,6 C 9,5 km/h (2 Bft)
11.05.2016 14:55 20,2 C 23,4 C 55 % 1005,0 hPa 0,0 mm 10,7 km/h (2 Bft) NO 45 0 min 10,9 C 10,7 km/h (2 Bft)
11.05.2016 15:00 20,2 C 23,2 C 56 % 1005,0 hPa 0,0 mm 8,3 km/h (2 Bft) O-NO 67 0 min 11,1 C 7,7 km/h (2 Bft)
11.05.2016 15:05 19,9 C 22,5 C 56 % 1005,0 hPa 0,0 mm 9,2 km/h (2 Bft) NO 45 0 min 10,9 C 11,9 km/h (2 Bft)
11.05.2016 15:10 19,7 C 21,9 C 56 % 1005,0 hPa 0,0 mm 8,9 km/h (2 Bft) N-NO 22 0 min 10,7 C 9,5 km/h (2 Bft)
11.05.2016 15:15 19,4 C 21,1 C 57 % 1005,1 hPa 0,0 mm 8,3 km/h (2 Bft) N-NO 22 0 min 10,7 C 15,5 km/h (3 Bft)
11.05.2016 15:20 19,2 C 20,6 C 57 % 1005,1 hPa 0,0 mm 9,5 km/h (2 Bft) NO 45 0 min 10,5 C 19,4 km/h (3 Bft)
11.05.2016 15:25 19,0 C 19,8 C 58 % 1005,1 hPa 0,0 mm 7,7 km/h (2 Bft) O-NO 67 0 min 10,5 C 4,5 km/h (1 Bft)
11.05.2016 15:30 18,9 C 19,6 C 59 % 1005,1 hPa 0,0 mm 5,1 km/h (1 Bft) O 90 0 min 10,7 C 0,0 km/h (0 Bft)
11.05.2016 15:35 18,9 C 19,6 C 60 % 1005,4 hPa 0,0 mm 3,0 km/h (1 Bft) N-NO 22 0 min 11,0 C 6,0 km/h (2 Bft)
11.05.2016 15:40 18,8 C 19,4 C 60 % 1005,4 hPa 0,0 mm 2,4 km/h (1 Bft) O-NO 67 0 min 10,9 C 0,0 km/h (0 Bft)
11.05.2016 15:45 18,7 C 18,8 C 61 % 1005,4 hPa 0,0 mm 2,1 km/h (1 Bft) O-SO 112 0 min 11,0 C 0,0 km/h (0 Bft)
11.05.2016 15:50 18,6 C 18,7 C 62 % 1005,4 hPa 0,0 mm 1,2 km/h (1 Bft) O-NO 67 0 min 11,2 C 6,6 km/h (2 Bft)
11.05.2016 15:55 18,4 C 18,5 C 64 % 1005,1 hPa 0,0 mm 0,6 km/h (0 Bft) NO 45 0 min 11,5 C 0,0 km/h (0 Bft)
11.05.2016 15:57 18,2 C 18,2 C 64 % 1005,1 hPa 0,0 mm 1,5 km/h (1 Bft) NO 45 0 min 11,3 C 0,0 km/h (0 Bft)
11.05.2016 16:01 18,2 C 18,2 C 64 % 1005,1 hPa 0,0 mm 1,5 km/h (1 Bft) NO 45 0 min 11,3 C 0,0 km/h (0 Bft)
11.05.2016 16:05 18,1 C 18,1 C 65 % 1005,1 hPa 0,0 mm 2,1 km/h (1 Bft) N-NO 22 0 min 11,4 C 6,3 km/h (2 Bft)
11.05.2016 16:10 18,0 C 17,9 C 66 % 1005,1 hPa 0,0 mm 2,7 km/h (1 Bft) NO 45 0 min 11,6 C 6,3 km/h (2 Bft)
11.05.2016 16:15 17,8 C 17,6 C 66 % 1005,0 hPa 0,0 mm 4,5 km/h (1 Bft) NO 45 0 min 11,4 C 8,3 km/h (2 Bft)
11.05.2016 16:20 17,6 C 17,2 C 67 % 1005,0 hPa 0,0 mm 3,9 km/h (1 Bft) O-SO 112 0 min 11,4 C 4,2 km/h (1 Bft)
11.05.2016 16:25 17,3 C 16,9 C 67 % 1005,0 hPa 0,0 mm 2,1 km/h (1 Bft) O-NO 67 0 min 11,1 C 3,9 km/h (1 Bft)
11.05.2016 16:30 17,2 C 17,0 C 67 % 1005,0 hPa 0,0 mm 1,2 km/h (1 Bft) NO 45 0 min 11,0 C 5,1 km/h (1 Bft)
11.05.2016 16:35 17,2 C 17,2 C 68 % 1004,8 hPa 0,0 mm 0,9 km/h (0 Bft) NO 45 0 min 11,2 C 0,0 km/h (0 Bft)
11.05.2016 16:40 17,3 C 17,6 C 68 % 1004,8 hPa 0,0 mm 0,3 km/h (0 Bft) O-NO 67 0 min 11,3 C 5,7 km/h (1 Bft)
11.05.2016 16:45 17,5 C 18,0 C 69 % 1004,8 hPa 0,0 mm 1,2 km/h (1 Bft) N 360 0 min 11,7 C 3,0 km/h (1 Bft)
11.05.2016 16:50 17,5 C 18,3 C 68 % 1004,8 hPa 0,0 mm 2,1 km/h (1 Bft) SW 225 0 min 11,5 C 0,0 km/h (0 Bft)
11.05.2016 16:55 17,5 C 18,4 C 68 % 1004,6 hPa 0,0 mm 2,7 km/h (1 Bft) O-NO 67 0 min 11,5 C 0,0 km/h (0 Bft)
11.05.2016 17:00 17,5 C 18,4 C 68 % 1004,6 hPa 0,0 mm 3,3 km/h (1 Bft) NO 45 0 min 11,5 C 5,7 km/h (1 Bft)
11.05.2016 17:05 17,4 C 18,3 C 68 % 1004,6 hPa 0,0 mm 4,8 km/h (1 Bft) N 360 0 min 11,4 C 10,1 km/h (2 Bft)
11.05.2016 17:10 17,4 C 18,1 C 68 % 1004,6 hPa 0,0 mm 5,4 km/h (1 Bft) NO 45 0 min 11,4 C 6,6 km/h (2 Bft)
11.05.2016 17:15 17,3 C 18,0 C 69 % 1004,3 hPa 0,0 mm 5,7 km/h (1 Bft) N-NO 22 0 min 11,6 C 10,1 km/h (2 Bft)
11.05.2016 17:20 17,3 C 18,0 C 69 % 1004,3 hPa 0,0 mm 5,4 km/h (1 Bft) O-NO 67 0 min 11,6 C 6,9 km/h (2 Bft)
11.05.2016 17:25 17,3 C 17,9 C 69 % 1004,3 hPa 0,0 mm 5,1 km/h (1 Bft) O-NO 67 0 min 11,6 C 8,9 km/h (2 Bft)
11.05.2016 17:30 17,2 C 17,8 C 69 % 1004,3 hPa 0,0 mm 4,8 km/h (1 Bft) O-NO 67 0 min 11,5 C 0,0 km/h (0 Bft)
11.05.2016 17:35 17,2 C 17,8 C 69 % 1004,2 hPa 0,0 mm 3,3 km/h (1 Bft) N-NW 337 0 min 11,5 C 3,3 km/h (1 Bft)
11.05.2016 17:40 17,2 C 17,7 C 69 % 1004,2 hPa 0,0 mm 2,4 km/h (1 Bft) O-NO 67 0 min 11,5 C 0,0 km/h (0 Bft)
11.05.2016 17:45 17,2 C 17,7 C 69 % 1004,2 hPa 0,0 mm 2,7 km/h (1 Bft) N-NW 337 0 min 11,5 C 0,0 km/h (0 Bft)
11.05.2016 17:50 17,2 C 17,7 C 69 % 1004,2 hPa 0,0 mm 2,4 km/h (1 Bft) O-NO 67 0 min 11,5 C 4,5 km/h (1 Bft)
11.05.2016 17:55 17,2 C 17,5 C 70 % 1004,1 hPa 0,0 mm 1,8 km/h (1 Bft) NO 45 0 min 11,7 C 5,4 km/h (1 Bft)
11.05.2016 18:00 17,2 C 17,5 C 69 % 1004,1 hPa 0,0 mm 1,8 km/h (1 Bft) O-NO 67 0 min 11,5 C 0,0 km/h (0 Bft)
11.05.2016 18:05 17,1 C 17,4 C 70 % 1004,1 hPa 0,0 mm 1,5 km/h (1 Bft) N-NO 22 0 min 11,6 C 5,4 km/h (1 Bft)
11.05.2016 18:10 17,0 C 17,3 C 70 % 1004,1 hPa 0,0 mm 0,6 km/h (0 Bft) N-NO 22 0 min 11,5 C 0,0 km/h (0 Bft)
11.05.2016 18:15 16,9 C 17,2 C 70 % 1004,1 hPa 0,0 mm 2,7 km/h (1 Bft) NO 45 0 min 11,4 C 0,0 km/h (0 Bft)
11.05.2016 18:20 16,9 C 17,2 C 70 % 1004,1 hPa 0,0 mm 2,7 km/h (1 Bft) N-NO 22 0 min 11,4 C 0,0 km/h (0 Bft)
11.05.2016 18:25 16,9 C 17,2 C 70 % 1004,1 hPa 0,0 mm 0,6 km/h (0 Bft) O-NO 67 0 min 11,4 C 0,0 km/h (0 Bft)
11.05.2016 18:30 16,9 C 17,3 C 70 % 1004,1 hPa 0,0 mm 0,3 km/h (0 Bft) O-NO 67 0 min 11,4 C 4,2 km/h (1 Bft)
11.05.2016 18:35 16,9 C 17,3 C 70 % 1003,8 hPa 0,0 mm 1,5 km/h (1 Bft) NO 45 0 min 11,4 C 11,9 km/h (2 Bft)
11.05.2016 18:40 16,9 C 17,2 C 70 % 1003,8 hPa 0,0 mm 3,0 km/h (1 Bft) O-NO 67 0 min 11,4 C 4,5 km/h (1 Bft)
11.05.2016 18:45 16,8 C 17,2 C 70 % 1003,8 hPa 0,0 mm 3,6 km/h (1 Bft) N-NO 22 0 min 11,3 C 3,9 km/h (1 Bft)
11.05.2016 18:50 16,8 C 17,2 C 70 % 1003,8 hPa 0,0 mm 2,1 km/h (1 Bft) O-NO 67 0 min 11,3 C 6,0 km/h (2 Bft)
11.05.2016 18:55 16,8 C 17,2 C 71 % 1003,9 hPa 0,0 mm 1,5 km/h (1 Bft) NO 45 0 min 11,5 C 6,3 km/h (2 Bft)
11.05.2016 19:00 16,7 C 17,1 C 70 % 1003,9 hPa 0,0 mm 3,6 km/h (1 Bft) NO 45 0 min 11,2 C 11,0 km/h (2 Bft)
11.05.2016 19:02 16,7 C 17,1 C 70 % 1003,9 hPa 0,0 mm 3,6 km/h (1 Bft) NO 45 0 min 11,2 C 11,0 km/h (2 Bft)
11.05.2016 19:05 16,7 C 17,2 C 70 % 1003,9 hPa 0,0 mm 6,0 km/h (2 Bft) N-NO 22 0 min 11,2 C 16,1 km/h (3 Bft)
11.05.2016 19:10 16,7 C 17,1 C 70 % 1003,9 hPa 0,0 mm 6,3 km/h (2 Bft) O-NO 67 0 min 11,2 C 0,0 km/h (0 Bft)
11.05.2016 19:15 16,6 C 17,0 C 70 % 1003,6 hPa 0,0 mm 4,8 km/h (1 Bft) NO 45 0 min 11,1 C 0,0 km/h (0 Bft)
11.05.2016 19:20 16,4 C 16,8 C 70 % 1003,6 hPa 0,0 mm 3,6 km/h (1 Bft) N-NO 22 0 min 10,9 C 7,2 km/h (2 Bft)
11.05.2016 19:25 16,2 C 16,4 C 70 % 1003,6 hPa 0,0 mm 3,9 km/h (1 Bft) O 90 0 min 10,7 C 0,0 km/h (0 Bft)
11.05.2016 19:30 16,0 C 16,2 C 70 % 1003,6 hPa 0,0 mm 3,3 km/h (1 Bft) O-NO 67 0 min 10,5 C 0,0 km/h (0 Bft)
11.05.2016 19:35 15,8 C 15,9 C 72 % 1003,4 hPa 0,0 mm 1,5 km/h (1 Bft) O-NO 67 0 min 10,8 C 3,0 km/h (1 Bft)
11.05.2016 19:40 15,7 C 15,7 C 72 % 1003,4 hPa 0,0 mm 0,9 km/h (0 Bft) O-SO 112 0 min 10,7 C 0,0 km/h (0 Bft)
11.05.2016 19:45 15,4 C 15,5 C 73 % 1003,4 hPa 0,0 mm 0,9 km/h (0 Bft) N-NO 22 0 min 10,6 C 3,0 km/h (1 Bft)
11.05.2016 19:50 15,3 C 15,3 C 74 % 1003,4 hPa 0,0 mm 0,6 km/h (0 Bft) O-NO 67 0 min 10,7 C 0,0 km/h (0 Bft)
11.05.2016 19:55 15,0 C 15,0 C 75 % 1003,4 hPa 0,0 mm 0,6 km/h (0 Bft) SO 135 0 min 10,6 C 3,0 km/h (1 Bft)
11.05.2016 20:00 15,0 C 15,0 C 75 % 1003,4 hPa 0,0 mm 0,3 km/h (0 Bft) O-SO 112 0 min 10,6 C 4,5 km/h (1 Bft)
11.05.2016 20:05 14,9 C 14,9 C 75 % 1003,4 hPa 0,0 mm 0,6 km/h (0 Bft) O-SO 112 0 min 10,5 C 3,3 km/h (1 Bft)
11.05.2016 20:10 14,8 C 14,7 C 76 % 1003,4 hPa 0,0 mm 1,2 km/h (1 Bft) O-SO 112 0 min 10,6 C 0,0 km/h (0 Bft)
11.05.2016 20:15 14,5 C 14,5 C 77 % 1003,2 hPa 0,0 mm 0,9 km/h (0 Bft) O-SO 112 0 min 10,5 C 0,0 km/h (0 Bft)
11.05.2016 20:20 14,5 C 14,4 C 77 % 1003,2 hPa 0,0 mm 0,9 km/h (0 Bft) O-NO 67 0 min 10,5 C 0,0 km/h (0 Bft)
11.05.2016 20:25 14,2 C 14,2 C 77 % 1003,2 hPa 0,0 mm 1,2 km/h (1 Bft) O-NO 67 0 min 10,2 C 0,0 km/h (0 Bft)
11.05.2016 20:30 14,1 C 14,0 C 77 % 1003,2 hPa 0,0 mm 0,9 km/h (0 Bft) O-SO 112 0 min 10,1 C 0,0 km/h (0 Bft)
11.05.2016 20:35 13,9 C 13,8 C 78 % 1003,0 hPa 0,0 mm 0,6 km/h (0 Bft) O 90 0 min 10,1 C 0,0 km/h (0 Bft)
11.05.2016 20:40 13,8 C 13,7 C 79 % 1003,0 hPa 0,0 mm 0,6 km/h (0 Bft) S-SO 157 0 min 10,2 C 0,0 km/h (0 Bft)
11.05.2016 20:45 13,7 C 13,5 C 79 % 1003,0 hPa 0,0 mm 0,3 km/h (0 Bft) O-SO 112 0 min 10,1 C 0,0 km/h (0 Bft)
11.05.2016 20:50 13,6 C 13,4 C 80 % 1003,0 hPa 0,0 mm 0,3 km/h (0 Bft) S-SO 157 0 min 10,2 C 0,0 km/h (0 Bft)
11.05.2016 20:55 13,4 C 13,2 C 80 % 1002,8 hPa 0,0 mm 0,0 km/h (0 Bft) O 90 0 min 10,0 C 0,0 km/h (0 Bft)
11.05.2016 21:00 13,3 C 13,1 C 80 % 1002,8 hPa 0,0 mm 0,3 km/h (0 Bft) O-NO 67 0 min 9,9 C 0,0 km/h (0 Bft)
11.05.2016 21:05 13,1 C 12,9 C 81 % 1002,8 hPa 0,0 mm 0,3 km/h (0 Bft) O-SO 112 0 min 9,9 C 0,0 km/h (0 Bft)
11.05.2016 21:10 13,1 C 12,9 C 82 % 1002,8 hPa 0,0 mm 0,6 km/h (0 Bft) O-SO 112 0 min 10,1 C 0,0 km/h (0 Bft)
11.05.2016 21:15 13,0 C 12,8 C 82 % 1002,7 hPa 0,0 mm 0,9 km/h (0 Bft) O-SO 112 0 min 10,0 C 3,0 km/h (1 Bft)
11.05.2016 21:20 12,9 C 12,7 C 83 % 1002,7 hPa 0,0 mm 0,6 km/h (0 Bft) O 90 0 min 10,1 C 0,0 km/h (0 Bft)
11.05.2016 21:25 12,9 C 12,7 C 84 % 1002,7 hPa 0,0 mm 0,3 km/h (0 Bft) O 90 0 min 10,3 C 0,0 km/h (0 Bft)
11.05.2016 21:30 12,8 C 12,6 C 84 % 1002,7 hPa 0,0 mm 0,0 km/h (0 Bft) SW 225 0 min 10,2 C 0,0 km/h (0 Bft)
11.05.2016 21:35 12,4 C 12,3 C 80 % 1002,7 hPa 0,0 mm 0,3 km/h (0 Bft) O-NO 67 0 min 9,0 C 0,0 km/h (0 Bft)
11.05.2016 21:40 11,8 C 11,8 C 83 % 1002,7 hPa 0,0 mm 0,3 km/h (0 Bft) O-NO 67 0 min 9,0 C 0,0 km/h (0 Bft)
11.05.2016 21:45 11,8 C 11,6 C 84 % 1002,7 hPa 0,0 mm 0,0 km/h (0 Bft) O-NO 67 0 min 9,2 C 0,0 km/h (0 Bft)
11.05.2016 21:50 11,6 C 11,5 C 80 % 1002,7 hPa 0,0 mm 0,0 km/h (0 Bft) SO 135 0 min 8,3 C 0,0 km/h (0 Bft)
11.05.2016 21:55 11,9 C 11,7 C 81 % 1002,6 hPa 0,0 mm 0,3 km/h (0 Bft) S-SO 157 0 min 8,7 C 3,3 km/h (1 Bft)
11.05.2016 22:00 12,0 C 11,8 C 81 % 1002,6 hPa 0,0 mm 0,3 km/h (0 Bft) S-SO 157 0 min 8,8 C 0,0 km/h (0 Bft)
11.05.2016 22:02 11,7 C 11,7 C 82 % 1002,6 hPa 0,0 mm 1,5 km/h (1 Bft) SO 135 0 min 8,7 C 0,0 km/h (0 Bft)
11.05.2016 22:03 11,7 C 11,7 C 82 % 1002,6 hPa 0,0 mm 1,5 km/h (1 Bft) SO 135 0 min 8,7 C 0,0 km/h (0 Bft)
11.05.2016 22:05 11,7 C 11,7 C 82 % 1002,6 hPa 0,0 mm 1,5 km/h (1 Bft) SO 135 0 min 8,7 C 0,0 km/h (0 Bft)
11.05.2016 22:10 11,7 C 11,6 C 82 % 1002,6 hPa 0,0 mm 1,5 km/h (1 Bft) O 90 0 min 8,7 C 0,0 km/h (0 Bft)
11.05.2016 22:15 10,9 C 10,9 C 86 % 1002,5 hPa 0,0 mm 0,3 km/h (0 Bft) O-NO 67 0 min 8,7 C 0,0 km/h (0 Bft)
11.05.2016 22:20 10,6 C 10,5 C 85 % 1002,5 hPa 0,0 mm 0,0 km/h (0 Bft) SO 135 0 min 8,2 C 0,0 km/h (0 Bft)
11.05.2016 22:25 10,5 C 10,3 C 86 % 1002,5 hPa 0,0 mm 0,0 km/h (0 Bft) O-NO 67 0 min 8,3 C 0,0 km/h (0 Bft)
11.05.2016 22:30 10,4 C 10,2 C 86 % 1002,5 hPa 0,0 mm 0,0 km/h (0 Bft) O-SO 112 0 min 8,2 C 0,0 km/h (0 Bft)
11.05.2016 22:35 11,1 C 10,8 C 82 % 1002,2 hPa 0,0 mm 1,2 km/h (1 Bft) O-SO 112 0 min 8,1 C 5,1 km/h (1 Bft)
11.05.2016 22:40 11,3 C 11,1 C 82 % 1002,2 hPa 0,0 mm 2,1 km/h (1 Bft) S-SO 157 0 min 8,3 C 0,0 km/h (0 Bft)
11.05.2016 22:45 11,3 C 11,0 C 84 % 1002,2 hPa 0,0 mm 1,2 km/h (1 Bft) O-SO 112 0 min 8,7 C 0,0 km/h (0 Bft)
11.05.2016 22:50 10,9 C 10,7 C 83 % 1002,2 hPa 0,0 mm 0,3 km/h (0 Bft) SO 135 0 min 8,1 C 3,0 km/h (1 Bft)
11.05.2016 22:55 10,1 C 10,0 C 83 % 1002,1 hPa 0,0 mm 0,3 km/h (0 Bft) O 90 0 min 7,3 C 0,0 km/h (0 Bft)
11.05.2016 23:00 9,8 C 9,7 C 83 % 1002,1 hPa 0,0 mm 0,3 km/h (0 Bft) S-SO 157 0 min 7,1 C 0,0 km/h (0 Bft)
11.05.2016 23:05 10,2 C 10,3 C 80 % 1002,1 hPa 0,0 mm 1,5 km/h (1 Bft) S-SO 157 0 min 6,9 C 4,2 km/h (1 Bft)
11.05.2016 23:10 10,3 C 10,5 C 81 % 1002,1 hPa 0,0 mm 3,0 km/h (1 Bft) S 180 0 min 7,2 C 3,9 km/h (1 Bft)
11.05.2016 23:15 9,9 C 10,1 C 80 % 1001,9 hPa 0,0 mm 2,1 km/h (1 Bft) O-NO 67 0 min 6,6 C 0,0 km/h (0 Bft)
11.05.2016 23:20 9,7 C 9,7 C 80 % 1001,9 hPa 0,0 mm 0,6 km/h (0 Bft) O-NO 67 0 min 6,4 C 0,0 km/h (0 Bft)
11.05.2016 23:25 9,8 C 9,9 C 81 % 1001,9 hPa 0,0 mm 0,0 km/h (0 Bft) S-SO 157 0 min 6,7 C 0,0 km/h (0 Bft)
11.05.2016 23:30 10,0 C 10,1 C 82 % 1001,9 hPa 0,0 mm 0,3 km/h (0 Bft) O-SO 112 0 min 7,1 C 0,0 km/h (0 Bft)
11.05.2016 23:35 9,6 C 9,5 C 85 % 1001,9 hPa 0,0 mm 0,3 km/h (0 Bft) O-NO 67 0 min 7,2 C 0,0 km/h (0 Bft)
11.05.2016 23:40 9,7 C 9,6 C 82 % 1001,9 hPa 0,0 mm 0,0 km/h (0 Bft) O-SO 112 0 min 6,8 C 0,0 km/h (0 Bft)
11.05.2016 23:45 9,9 C 10,0 C 82 % 1001,9 hPa 0,0 mm 0,0 km/h (0 Bft) O-SO 112 0 min 7,0 C 0,0 km/h (0 Bft)
11.05.2016 23:50 10,1 C 10,2 C 82 % 1001,9 hPa 0,0 mm 0,3 km/h (0 Bft) W 270 0 min 7,2 C 4,2 km/h (1 Bft)
11.05.2016 23:55 9,6 C 9,5 C 86 % 1001,9 hPa 0,0 mm 1,2 km/h (1 Bft) N-NO 22 0 min 7,4 C 0,0 km/h (0 Bft)
_ Min-Zeit 05:35 05:40 14:50 23:55 - 23:45 - - - 05:35 23:55
Minimum _ 5,2 C 5,2 C 54 % 1001,9 hPa - 0,0 km/h (0 Bft) - - - 3,7 C 0,0 km/h (0 Bft)
_ Max-Zeit 15:00 13:40 06:05 00:10 23:55 13:15 - - 11:25 16:45 11:55
Maximum _ 20,2 C 23,6 C 91 % 1010,8 hPa 0,0 mm 17,3 km/h
O-NO (3 Bft)
- - 5 min 11,7 C 34,0 km/h
N-NO (5 Bft)
Durchschnitt _ 12,8 C 14,0 C 77 % 1006,1 hPa #0,0 mm 3,7 km/h (1 Bft) N-NO - #2:40 h 8,5 C 5,0 km/h (1 Bft)